This is the latest recevied weather packets stored in our database for station/object SV2RIM-2. If no packets are shown the sender has not sent any weather packets the latest 10 day(s).
| Time | Temp. | Humidity | Pressure | Rain* | Wind** | Luminosity | Snow |
|---|---|---|---|---|---|---|---|
| 1777731619 | 20° C | 49% | 1017.3 hPa | 3.81 mm | - | - | - |
| 1777731020 | 21.11° C | 44% | 1017.5 hPa | 3.81 mm | - | - | - |
| 1777730419 | 19.44° C | 42% | 1017.6 hPa | 3.81 mm | - | - | - |
| 1777729819 | 17.22° C | 46% | 1017.7 hPa | 3.81 mm | - | - | - |
| 1777729219 | 17.78° C | 50% | 1017.7 hPa | 3.81 mm | - | - | - |
| 1777728619 | 20° C | 50% | 1017.9 hPa | 3.81 mm | - | - | - |
| 1777728019 | 20.56° C | 45% | 1018 hPa | 3.81 mm | - | - | - |
| 1777727419 | 17.22° C | 47% | 1018.2 hPa | 3.81 mm | - | - | - |
| 1777726819 | 18.33° C | 47% | 1018.3 hPa | 3.81 mm | - | - | - |
| 1777726219 | 20° C | 45% | 1018.4 hPa | 3.81 mm | - | - | - |
| 1777725619 | 17.78° C | 45% | 1018.6 hPa | 3.81 mm | - | - | - |
| 1777725019 | 18.33° C | 46% | 1018.6 hPa | 3.81 mm | - | - | - |
| 1777724419 | 18.33° C | 49% | 1018.7 hPa | 3.81 mm | - | - | - |
| 1777723819 | 17.22° C | 52% | 1018.8 hPa | 3.81 mm | - | - | - |
| 1777723219 | 17.78° C | 56% | 1018.8 hPa | 3.81 mm | - | - | - |
| 1777722619 | 19.44° C | 51% | 1019 hPa | 3.81 mm | - | - | - |
| 1777722019 | 19.44° C | 51% | 1019.1 hPa | 3.81 mm | - | - | - |
| 1777721419 | 18.89° C | 51% | 1019.3 hPa | 3.81 mm | - | - | - |
| 1777720819 | 17.78° C | 51% | 1019.4 hPa | 3.81 mm | - | - | - |
| 1777720219 | 16.67° C | 53% | 1019.5 hPa | 3.81 mm | - | - | - |
| 1777719619 | 18.89° C | 50% | 1019.5 hPa | 3.81 mm | - | - | - |
| 1777719019 | 18.89° C | 49% | 1019.6 hPa | 3.81 mm | - | - | - |
| 1777718419 | 18.89° C | 49% | 1019.8 hPa | 3.81 mm | - | - | - |
| 1777717819 | 19.44° C | 49% | 1019.8 hPa | 3.81 mm | - | - | - |
| 1777717219 | 18.33° C | 50% | 1019.9 hPa | 3.81 mm | - | - | - |
* Rain latest 24 hours (hover to see other rain measurements)
** Current wind speed in m/s (hover to see current wind gust speed)